Regional Weather Roundup
Issued by NWS Jackson, KY

Home | Current Version | Previous Version | Graphics & Text | Print | Product List | Glossary On
Versions: 1 2 3 4 5 6 7 8 9 10 11 12 13 14 15 16 17 18 19 20 21 22 23 24 25 26 27 28 29 30 31 32 33 34 35 36 37 38 39 40 41 42 43 44 45 46 47 48 49 50
000
ASUS43 KJKL 222310
RWRJKL

EAST KENTUCKY HOURLY WEATHER ROUNDUP
NATIONAL WEATHER SERVICE JACKSON KY
700 PM EDT THU JUN 22 2017

NOTE: "FAIR" INDICATES FEW OR NO CLOUDS BELOW 12,000 FEET WITH
NO SIGNIFICANT WEATHER AND/OR OBSTRUCTIONS TO VISIBILITY.

* THESE REPORTS ARE NOT UNDER NWS QUALITY CONTROL AND MAY NOT
  REPORT WEATHER SUCH AS PRECIPITATION AND FOG.

KYZ079-080-083-085-087-088-110-112-115-119-120-230000
...EASTERN KENTUCKY...

CITY           SKY/WX    TMP DP  RH WIND       PRES   REMARKS
JACKSON        LGT RAIN  71  69  93 VRB7      30.01F
LONDON         LGT RAIN  71  68  90 SE7       29.97F
SOMERSET*      CLOUDY    70  70 100 CALM      29.97S
MONTICELLO*    CLOUDY    74  71  91 E7        29.97S
WILLIAMSBURG*  CLOUDY    72  72 100 S7        29.98S
MIDDLESBORO*   CLOUDY    73  71  94 CALM      30.02F
HARLAN APT*    CLOUDY    70  66  88 CALM      30.03F
PIKE CO APT*   CLOUDY    71  71 100 S3        30.03F
BIG SANDY APT* RAIN      73  73 100 CALM      30.02F
MOREHEAD APT*  CLOUDY    72  68  88 SE3       30.00S FOG
$$

KYZ035-036-041-042-044-050-067-078-099-230000
...CENTRAL KENTUCKY...

CITY           SKY/WX    TMP DP  RH WIND       PRES   REMARKS
MT STERLING*   RAIN      72  70  94 S10       29.99S
FLEMING/MASON* RAIN      70  69  97 SE5       29.98F
DANVILLE*      HVY RAIN  68  68 100 S7        29.95F
LEXINGTON      RAIN      72  69  90 S18       29.96S FOG
FRANKFORT      RAIN      72  68  87 S12G21    29.92F FOG
LOUISVILLE     RAIN      73  71  93 SE9       29.90S
LEBANON*       LGT RAIN  72  72 100 SE13      29.93S
GLASGOW*       CLOUDY    75  75 100 S8        29.90F
BOWLING GREEN  CLOUDY    80  76  87 S10       29.88F
$$

KYZ091>093-OHZ055-061-077-WVZ005-015-034-035-042-230000
...SOUTHERN OHIO/WEST VIRGINIA...

CITY           SKY/WX    TMP DP  RH WIND       PRES   REMARKS
COVINGTON      RAIN      72  70  93 S8        29.93F FOG
COLUMBUS       PTSUNNY   83  69  62 S18G25    29.91F
DAYTON         PTSUNNY   79  67  66 S17       29.91F
WILMINGTON     CLOUDY    75  68  78 S12G24    29.94S
HUNTINGTON     LGT RAIN  73  69  87 CALM      30.00S
CHARLESTON     CLOUDY    76  67  73 W7        30.00S
PINEVILLE*     DRIZZLE   73  70  91 MISG      30.11S
BECKLEY        CLOUDY    73  65  75 SW9       30.09S
BLUEFIELD      CLOUDY    69  63  81 SW5       30.13S
LOGAN CO APT*    N/A     72  70  94 CALM      30.04S
$$

VAZ002-007-008-TNZ017-027-036-066-071-230000
...SOUTHWEST VIRGINIA/EAST TENNESSEE...

CITY           SKY/WX    TMP DP  RH WIND       PRES   REMARKS
WISE*          RAIN      68  68 100 CALM      30.12F
JONESVILLE*      N/A     72  70  94 E5        30.06F
ABINGDON*      LGT RAIN  73  70  91 CALM      30.11S
BRISTOL        LGT RAIN  73  71  93 E3        30.07F
MORRISTOWN*    CLOUDY    73  72  94 E6G14     30.01F
SEVIERVILLE*   CLOUDY    73  72  94 CALM      29.99F
KNOXVILLE      CLOUDY    74  71  91 E3        29.99F
LAFOLLETTE*    CLOUDY    73  70  88 CALM      30.04S
OAK RIDGE      CLOUDY    74  71  91 CALM      30.01S
CROSSVILLE     LGT RAIN  71  69  93 VRB6      30.01F
NASHVILLE      CLOUDY    81  73  76 S13       29.89F
$$

...KEY TO REMARKS...
VSB - VISIBILITY IN MILES
WCI - WIND CHILL INDEX
HX  - HEAT INDEX

$$



USA.gov is the U.S. government's official web portal to all federal, state and local government web resources and services.